| time (UTC) | temp F | wind direction | speed MPH | gust MPH | rain 1hr in | rain 24hr in | rain mn in | humidity % | barometer mb |
| 20260901070051 | 67 | 0 | 0.0 | 0.0 | 0.00 | 0.00 | 0.00 | 90 | 1015.1 |
| 20260901065520 | 67 | 0 | 0.0 | 0.0 | 0.00 | 0.00 | 0.00 | 90 | 1014.9 |
| 20260901065017 | 67 | 0 | 0.0 | 0.0 | 0.00 | 0.00 | 0.00 | 90 | 1014.9 |
| 20260901064540 | 67 | 0 | 0.0 | 0.0 | 0.00 | 0.00 | 0.00 | 90 | 1015.0 |
| 20260901064021 | 67 | 0 | 0.0 | 0.0 | 0.00 | 0.00 | 0.00 | 90 | 1014.9 |
| 20260901063518 | 67 | 0 | 0.0 | 0.0 | 0.00 | 0.00 | 0.00 | 90 | 1014.9 |
| 20260901063041 | 67 | 0 | 0.0 | 0.0 | 0.00 | 0.00 | 0.00 | 90 | 1014.9 |
| 20260901062517 | 67 | 0 | 0.0 | 0.0 | 0.00 | 0.00 | 0.00 | 90 | 1014.9 |
| 20260901062023 | 67 | 0 | 0.0 | 0.0 | 0.00 | 0.00 | 0.00 | 90 | 1014.9 |
| 20260901061541 | 67 | 0 | 0.0 | 0.0 | 0.00 | 0.00 | 0.00 | 90 | 1014.8 |
| 20260901061018 | 67 | 0 | 0.0 | 0.0 | 0.00 | 0.00 | 0.00 | 90 | 1014.8 |
| 20260901060520 | 67 | 0 | 0.0 | 0.0 | 0.00 | 0.00 | 0.00 | 90 | 1014.8 |
| 20260901060041 | 67 | 0 | 0.0 | 0.0 | 0.00 | 0.00 | 0.00 | 89 | 1014.9 |
| 20260901055521 | 67 | 0 | 0.0 | 0.0 | 0.00 | 0.00 | 0.00 | 89 | 1014.9 |
| 20260901055021 | 67 | 0 | 0.0 | 0.0 | 0.00 | 0.00 | 0.00 | 89 | 1014.9 |
| 20260901054540 | 67 | 0 | 0.0 | 0.0 | 0.00 | 0.00 | 0.00 | 89 | 1014.8 |
| 20260901054020 | 67 | 0 | 0.0 | 0.0 | 0.00 | 0.00 | 0.00 | 89 | 1015.0 |
| 20260901053520 | 67 | 0 | 0.0 | 0.0 | 0.00 | 0.00 | 0.00 | 89 | 1014.9 |
| 20260901053044 | 67 | 0 | 0.0 | 0.0 | 0.00 | 0.00 | 0.00 | 89 | 1014.7 |
| 20260901052518 | 67 | 0 | 0.0 | 0.0 | 0.00 | 0.00 | 0.00 | 89 | 1014.7 |
| 20260901052017 | 67 | 0 | 0.0 | 0.0 | 0.00 | 0.00 | 0.00 | 89 | 1014.7 |
| 20260901051542 | 67 | 0 | 0.0 | 0.0 | 0.00 | 0.00 | 0.00 | 89 | 1014.6 |
| 20260901051026 | 67 | 0 | 0.0 | 0.0 | 0.00 | 0.00 | 0.00 | 88 | 1014.4 |
| 20260901050519 | 67 | 0 | 0.0 | 0.0 | 0.00 | 0.00 | 0.00 | 88 | 1014.4 |
| 20260901050045 | 68 | 0 | 0.0 | 0.0 | 0.00 | 0.00 | 0.00 | 88 | 1014.5 |
| 20260901045518 | 68 | 0 | 0.0 | 0.0 | 0.00 | 0.00 | 0.00 | 88 | 1014.4 |
| 20260901045018 | 68 | 0 | 0.0 | 0.0 | 0.00 | 0.00 | 0.00 | 88 | 1014.6 |
| 20260901044555 | 68 | 0 | 0.0 | 0.0 | 0.00 | 0.00 | 0.00 | 88 | 1014.7 |
| 20260901044018 | 68 | 0 | 0.0 | 0.0 | 0.00 | 0.00 | 0.00 | 88 | 1014.7 |
| 20260901043522 | 68 | 0 | 0.0 | 0.0 | 0.00 | 0.00 | 0.00 | 88 | 1014.6 |
| 20260901043040 | 68 | 0 | 0.0 | 0.0 | 0.00 | 0.00 | 0.00 | 88 | 1014.6 |
| 20260901042526 | 68 | 0 | 0.0 | 0.0 | 0.00 | 0.00 | 0.00 | 88 | 1014.6 |
| 20260901042020 | 68 | 0 | 0.0 | 0.0 | 0.00 | 0.00 | 0.00 | 87 | 1014.6 |
| 20260901041540 | 67 | 0 | 0.0 | 0.0 | 0.00 | 0.00 | 0.00 | 87 | 1014.5 |
| 20260901041020 | 68 | 0 | 0.0 | 0.0 | 0.00 | 0.00 | 0.00 | 87 | 1014.5 |
| 20260901040520 | 68 | 0 | 0.0 | 0.0 | 0.00 | 0.00 | 0.00 | 87 | 1014.4 |
| 20260901040049 | 68 | 0 | 0.0 | 0.0 | 0.00 | 0.00 | 0.00 | 87 | 1014.3 |
| 20260901035520 | 68 | 0 | 0.0 | 0.0 | 0.00 | 0.00 | 0.00 | 87 | 1014.3 |
| 20260901035023 | 67 | 0 | 0.0 | 0.0 | 0.00 | 0.00 | 0.00 | 86 | 1014.3 |
| 20260901034537 | 68 | 0 | 0.0 | 0.0 | 0.00 | 0.00 | 0.00 | 86 | 1014.2 |
| 20260901034023 | 68 | 0 | 0.0 | 0.0 | 0.00 | 0.00 | 0.00 | 86 | 1014.2 |
| 20260901033518 | 68 | 0 | 0.0 | 0.0 | 0.00 | 0.00 | 0.00 | 86 | 1014.2 |
| 20260901033053 | 68 | 0 | 0.0 | 0.0 | 0.00 | 0.00 | 0.00 | 86 | 1014.1 |
| 20260901032520 | 68 | 0 | 0.0 | 1.0 | 0.00 | 0.00 | 0.00 | 86 | 1014.1 |
| 20260901032020 | 68 | 0 | 0.0 | 1.0 | 0.00 | 0.00 | 0.00 | 86 | 1014.0 |
| 20260901031537 | 68 | 0 | 0.0 | 1.0 | 0.00 | 0.00 | 0.00 | 86 | 1014.0 |
| 20260901031021 | 68 | 0 | 0.0 | 0.0 | 0.00 | 0.00 | 0.00 | 86 | 1013.8 |
| 20260901030516 | 68 | 0 | 0.0 | 0.0 | 0.00 | 0.00 | 0.00 | 86 | 1013.6 |
| 20260901030039 | 69 | 0 | 0.0 | 0.0 | 0.00 | 0.00 | 0.00 | 86 | 1013.5 |
| 20260901025520 | 69 | 0 | 0.0 | 0.0 | 0.00 | 0.00 | 0.00 | 86 | 1013.8 |
| 20260901025018 | 69 | 0 | 0.0 | 0.0 | 0.00 | 0.00 | 0.00 | 86 | 1013.6 |
| 20260901024541 | 69 | 0 | 0.0 | 1.0 | 0.00 | 0.00 | 0.00 | 86 | 1013.6 |
| 20260901024021 | 70 | 0 | 0.0 | 1.0 | 0.00 | 0.00 | 0.00 | 86 | 1013.5 |
| 20260901023521 | 70 | 0 | 0.0 | 1.0 | 0.00 | 0.00 | 0.00 | 86 | 1013.5 |
| 20260901023045 | 70 | 0 | 0.0 | 1.0 | 0.00 | 0.00 | 0.00 | 86 | 1013.4 |
| 20260901022518 | 70 | 0 | 0.0 | 1.0 | 0.00 | 0.00 | 0.00 | 85 | 1013.2 |
| 20260901022022 | 70 | 5 | 0.0 | 2.0 | 0.00 | 0.00 | 0.00 | 85 | 1013.1 |
| 20260901021558 | 70 | 0 | 0.0 | 3.0 | 0.00 | 0.00 | 0.00 | 85 | 1013.1 |
| 20260901021018 | 70 | 0 | 0.0 | 3.0 | 0.00 | 0.00 | 0.00 | 85 | 1013.0 |
| 20260901020519 | 70 | 0 | 0.0 | 2.0 | 0.00 | 0.00 | 0.00 | 85 | 1013.0 |
| 20260901020045 | 71 | 0 | 0.0 | 3.0 | 0.00 | 0.00 | 0.00 | 85 | 1013.1 |
| 20260901015522 | 71 | 0 | 0.0 | 4.0 | 0.00 | 0.00 | 0.00 | 85 | 1013.1 |
| 20260901015018 | 71 | 0 | 0.0 | 4.0 | 0.00 | 0.00 | 0.00 | 85 | 1013.0 |
| 20260901014541 | 71 | 57 | 0.0 | 4.0 | 0.00 | 0.00 | 0.00 | 84 | 1012.9 |
| 20260901014019 | 71 | 352 | 0.0 | 3.0 | 0.00 | 0.00 | 0.00 | 84 | 1012.8 |
| 20260901013520 | 71 | 42 | 0.0 | 4.0 | 0.00 | 0.00 | 0.00 | 84 | 1012.8 |
| 20260901013049 | 71 | 0 | 0.0 | 4.0 | 0.00 | 0.00 | 0.00 | 84 | 1012.8 |
| 20260901012518 | 71 | 0 | 1.0 | 4.0 | 0.00 | 0.00 | 0.00 | 84 | 1012.9 |
| 20260901012017 | 71 | 5 | 0.0 | 5.0 | 0.00 | 0.00 | 0.00 | 83 | 1012.9 |
| 20260901011606 | 71 | 0 | 0.0 | 5.0 | 0.00 | 0.00 | 0.00 | 83 | 1012.7 |
| 20260901011021 | 72 | 331 | 2.0 | 5.0 | 0.00 | 0.00 | 0.00 | 82 | 1012.8 |
| 20260901010520 | 72 | 0 | 0.0 | 4.0 | 0.00 | 0.00 | 0.00 | 82 | 1013.0 |
| 20260901010041 | 72 | 0 | 1.0 | 4.0 | 0.00 | 0.00 | 0.00 | 82 | 1013.2 |
| 20260901005518 | 72 | 88 | 0.0 | 3.0 | 0.00 | 0.00 | 0.00 | 81 | 1013.1 |
| 20260901005024 | 72 | 116 | 0.0 | 3.0 | 0.00 | 0.00 | 0.00 | 81 | 1013.1 |
| 20260901004546 | 72 | 0 | 1.0 | 3.0 | 0.00 | 0.00 | 0.00 | 81 | 1013.2 |
| 20260901004020 | 72 | 0 | 1.0 | 3.0 | 0.00 | 0.00 | 0.00 | 81 | 1013.2 |
| 20260901003520 | 73 | 0 | 1.0 | 3.0 | 0.00 | 0.00 | 0.00 | 81 | 1013.2 |
| 20260901003047 | 73 | 352 | 0.0 | 3.0 | 0.00 | 0.00 | 0.00 | 81 | 1013.2 |
| 20260901002522 | 73 | 339 | 1.0 | 4.0 | 0.00 | 0.00 | 0.00 | 81 | 1013.2 |
| 20260901002023 | 73 | 0 | 0.0 | 8.0 | 0.00 | 0.00 | 0.00 | 81 | 1013.2 |
| 20260901001539 | 73 | 247 | 2.0 | 8.0 | 0.00 | 0.00 | 0.00 | 80 | 1013.2 |
| 20260901001025 | 74 | 9 | 0.0 | 4.0 | 0.00 | 0.00 | 0.00 | 81 | 1013.3 |
| 20260901000520 | 73 | 32 | 1.0 | 5.0 | 0.00 | 0.00 | 0.00 | 80 | 1013.3 |
| 20260901000041 | 73 | 32 | 1.0 | 8.0 | 0.00 | 0.00 | 0.00 | 81 | 1013.3 |
| 20260831235520 | 73 | 53 | 2.0 | 8.0 | 0.00 | 0.00 | 0.00 | 80 | 1013.3 |
| 20260831235021 | 74 | 63 | 3.0 | 7.0 | 0.00 | 0.00 | 0.00 | 79 | 1013.3 |
| 20260831234539 | 74 | 360 | 1.0 | 7.0 | 0.00 | 0.00 | 0.00 | 80 | 1013.3 |
| 20260831234017 | 74 | 44 | 1.0 | 7.0 | 0.00 | 0.00 | 0.00 | 79 | 1013.4 |
| 20260831233521 | 75 | 360 | 2.0 | 7.0 | 0.00 | 0.00 | 0.00 | 78 | 1013.5 |
| 20260831233037 | 75 | 22 | 2.0 | 7.0 | 0.00 | 0.00 | 0.00 | 79 | 1013.4 |
| 20260831232518 | 75 | 0 | 1.0 | 6.0 | 0.00 | 0.00 | 0.00 | 78 | 1013.4 |
| 20260831232022 | 76 | 49 | 1.0 | 6.0 | 0.00 | 0.00 | 0.00 | 77 | 1013.5 |
| 20260831231541 | 76 | 9 | 1.0 | 6.0 | 0.00 | 0.00 | 0.00 | 78 | 1013.5 |
| 20260831231018 | 76 | 76 | 1.0 | 5.0 | 0.00 | 0.00 | 0.00 | 77 | 1013.4 |
| 20260831230520 | 76 | 32 | 1.0 | 9.0 | 0.00 | 0.00 | 0.00 | 78 | 1013.5 |
| 20260831230039 | 76 | 28 | 1.0 | 9.0 | 0.00 | 0.00 | 0.00 | 78 | 1013.6 |
| 20260831225521 | 75 | 10 | 2.0 | 5.0 | 0.00 | 0.00 | 0.00 | 77 | 1013.6 |
| 20260831225026 | 77 | 346 | 1.0 | 6.0 | 0.00 | 0.00 | 0.00 | 77 | 1013.6 |
| 20260831224538 | 76 | 86 | 2.0 | 9.0 | 0.00 | 0.00 | 0.00 | 77 | 1013.6 |
| 20260831224018 | 76 | 5 | 2.0 | 9.0 | 0.00 | 0.00 | 0.00 | 79 | 1013.7 |
| 20260831223521 | 76 | 63 | 1.0 | 8.0 | 0.00 | 0.00 | 0.00 | 76 | 1013.6 |
| 20260831223046 | 77 | 312 | 2.0 | 8.0 | 0.00 | 0.00 | 0.00 | 75 | 1013.7 |
| 20260831222521 | 78 | 69 | 2.0 | 6.0 | 0.00 | 0.00 | 0.00 | 73 | 1013.7 |
| 20260831222020 | 78 | 33 | 1.0 | 6.0 | 0.00 | 0.00 | 0.00 | 74 | 1013.9 |
| 20260831221556 | 77 | 0 | 1.0 | 7.0 | 0.00 | 0.00 | 0.00 | 75 | 1013.8 |
| 20260831221018 | 78 | 352 | 2.0 | 7.0 | 0.00 | 0.00 | 0.00 | 72 | 1014.0 |
| 20260831220518 | 78 | 59 | 2.0 | 8.0 | 0.00 | 0.00 | 0.00 | 73 | 1014.0 |
| 20260831220038 | 78 | 71 | 2.0 | 8.0 | 0.00 | 0.00 | 0.00 | 73 | 1014.0 |
| 20260831215521 | 78 | 13 | 1.0 | 8.0 | 0.00 | 0.00 | 0.00 | 73 | 1014.0 |
| 20260831215018 | 78 | 321 | 2.0 | 8.0 | 0.00 | 0.00 | 0.00 | 73 | 1013.9 |
| 20260831214547 | 79 | 62 | 3.0 | 8.0 | 0.00 | 0.00 | 0.00 | 72 | 1014.0 |
| 20260831214020 | 79 | 229 | 3.0 | 8.0 | 0.00 | 0.00 | 0.00 | 71 | 1014.0 |
| 20260831213518 | 78 | 84 | 1.0 | 8.0 | 0.00 | 0.00 | 0.00 | 73 | 1013.9 |
| 20260831213040 | 78 | 248 | 3.0 | 8.0 | 0.00 | 0.00 | 0.00 | 72 | 1014.0 |
| 20260831212520 | 79 | 84 | 2.0 | 8.0 | 0.00 | 0.00 | 0.00 | 71 | 1014.0 |
| 20260831212020 | 78 | 0 | 2.0 | 9.0 | 0.00 | 0.00 | 0.00 | 73 | 1014.0 |
| 20260831211545 | 78 | 62 | 2.0 | 9.0 | 0.00 | 0.00 | 0.00 | 73 | 1014.1 |
| 20260831211019 | 77 | 351 | 2.0 | 9.0 | 0.00 | 0.00 | 0.00 | 74 | 1014.1 |
| 20260831210521 | 77 | 76 | 2.0 | 9.0 | 0.00 | 0.00 | 0.00 | 73 | 1014.1 |
| 20260831210043 | 78 | 57 | 2.0 | 9.0 | 0.00 | 0.00 | 0.00 | 74 | 1014.2 |
| 20260831205520 | 79 | 352 | 2.0 | 12.0 | 0.00 | 0.00 | 0.00 | 71 | 1014.3 |
| 20260831205024 | 78 | 75 | 2.0 | 12.0 | 0.00 | 0.00 | 0.00 | 72 | 1014.3 |
| 20260831204544 | 79 | 63 | 2.0 | 5.0 | 0.00 | 0.00 | 0.00 | 72 | 1014.3 |
| 20260831204018 | 80 | 75 | 2.0 | 6.0 | 0.00 | 0.00 | 0.00 | 70 | 1014.4 |
| 20260831203517 | 79 | 36 | 2.0 | 6.0 | 0.00 | 0.00 | 0.00 | 72 | 1014.4 |
| 20260831203048 | 79 | 83 | 1.0 | 6.0 | 0.00 | 0.00 | 0.00 | 71 | 1014.3 |
| 20260831202524 | 78 | 67 | 2.0 | 10.0 | 0.00 | 0.00 | 0.00 | 73 | 1014.5 |
| 20260831202026 | 77 | 56 | 2.0 | 10.0 | 0.00 | 0.00 | 0.00 | 74 | 1014.5 |
| 20260831201545 | 79 | 34 | 2.0 | 10.0 | 0.00 | 0.00 | 0.00 | 72 | 1014.5 |
| 20260831201021 | 78 | 73 | 2.0 | 8.0 | 0.00 | 0.00 | 0.00 | 72 | 1014.6 |
| 20260831200517 | 79 | 56 | 3.0 | 7.0 | 0.00 | 0.00 | 0.00 | 72 | 1014.7 |
| 20260831200046 | 80 | 83 | 1.0 | 8.0 | 0.00 | 0.00 | 0.00 | 71 | 1014.7 |
| 20260831195519 | 78 | 5 | 2.0 | 8.0 | 0.00 | 0.00 | 0.00 | 72 | 1014.7 |
| 20260831195018 | 78 | 135 | 3.0 | 7.0 | 0.00 | 0.00 | 0.00 | 72 | 1014.5 |
| 20260831194540 | 79 | 31 | 1.0 | 9.0 | 0.00 | 0.00 | 0.00 | 72 | 1014.6 |
| 20260831194019 | 78 | 148 | 2.0 | 9.0 | 0.00 | 0.00 | 0.00 | 75 | 1014.6 |
| 20260831193516 | 77 | 0 | 2.0 | 6.0 | 0.00 | 0.00 | 0.00 | 74 | 1014.7 |
| 20260831193039 | 78 | 327 | 1.0 | 6.0 | 0.00 | 0.00 | 0.00 | 73 | 1014.7 |
| 20260831192518 | 78 | 311 | 1.0 | 6.0 | 0.00 | 0.00 | 0.00 | 73 | 1014.8 |
| 20260831192023 | 77 | 93 | 2.0 | 8.0 | 0.00 | 0.00 | 0.00 | 73 | 1014.7 |
| 20260831191537 | 77 | 48 | 2.0 | 8.0 | 0.00 | 0.00 | 0.00 | 73 | 1014.9 |
| 20260831191019 | 78 | 63 | 1.0 | 6.0 | 0.00 | 0.00 | 0.00 | 72 | 1015.0 |
| 20260831190518 | 78 | 43 | 2.0 | 6.0 | 0.00 | 0.00 | 0.00 | 73 | 1015.0 |
| 20260831190052 | 78 | 130 | 1.0 | 6.0 | 0.00 | 0.00 | 0.00 | 74 | 1015.0 |
| 20260831185519 | 77 | 88 | 2.0 | 6.0 | 0.00 | 0.00 | 0.00 | 73 | 1015.0 |
| 20260831185019 | 77 | 89 | 2.0 | 7.0 | 0.00 | 0.00 | 0.00 | 75 | 1015.0 |
| 20260831184539 | 77 | 240 | 1.0 | 7.0 | 0.00 | 0.00 | 0.00 | 75 | 1014.9 |
| 20260831184018 | 77 | 111 | 2.0 | 7.0 | 0.00 | 0.00 | 0.00 | 75 | 1014.9 |
| 20260831183521 | 77 | 44 | 3.0 | 7.0 | 0.00 | 0.00 | 0.00 | 73 | 1015.0 |
| 20260831183041 | 78 | 91 | 2.0 | 8.0 | 0.00 | 0.00 | 0.00 | 73 | 1015.0 |
| 20260831182520 | 78 | 108 | 2.0 | 8.0 | 0.00 | 0.00 | 0.00 | 72 | 1015.0 |
| 20260831182021 | 78 | 86 | 1.0 | 7.0 | 0.00 | 0.00 | 0.00 | 74 | 1014.9 |
| 20260831181535 | 77 | 61 | 2.0 | 7.0 | 0.00 | 0.00 | 0.00 | 74 | 1014.9 |
| 20260831181018 | 77 | 196 | 2.0 | 5.0 | 0.00 | 0.00 | 0.00 | 74 | 1014.9 |
| 20260831180520 | 77 | 90 | 1.0 | 5.0 | 0.00 | 0.00 | 0.00 | 73 | 1014.9 |
| 20260831180054 | 77 | 9 | 2.0 | 5.0 | 0.00 | 0.00 | 0.00 | 74 | 1014.9 |
| 20260831175519 | 77 | 39 | 1.0 | 5.0 | 0.00 | 0.00 | 0.00 | 74 | 1014.8 |
| 20260831175020 | 77 | 82 | 1.0 | 4.0 | 0.00 | 0.00 | 0.00 | 74 | 1015.0 |
| 20260831174539 | 77 | 102 | 2.0 | 5.0 | 0.00 | 0.00 | 0.00 | 74 | 1014.7 |
| 20260831174045 | 76 | 83 | 2.0 | 5.0 | 0.00 | 0.00 | 0.00 | 75 | 1014.7 |
| 20260831173518 | 77 | 124 | 2.0 | 5.0 | 0.00 | 0.00 | 0.00 | 74 | 1014.9 |
| 20260831173037 | 76 | 61 | 1.0 | 6.0 | 0.00 | 0.00 | 0.00 | 74 | 1014.6 |
| 20260831172521 | 76 | 178 | 2.0 | 6.0 | 0.00 | 0.00 | 0.00 | 75 | 1014.6 |
| 20260831172022 | 77 | 103 | 1.0 | 6.0 | 0.00 | 0.00 | 0.00 | 74 | 1014.6 |
| 20260831171538 | 76 | 94 | 1.0 | 6.0 | 0.00 | 0.00 | 0.00 | 75 | 1014.6 |
| 20260831171020 | 76 | 55 | 2.0 | 6.0 | 0.00 | 0.00 | 0.00 | 75 | 1014.6 |
| 20260831170518 | 77 | 0 | 1.0 | 6.0 | 0.00 | 0.00 | 0.00 | 74 | 1014.5 |
| 20260831170040 | 76 | 44 | 1.0 | 4.0 | 0.00 | 0.00 | 0.00 | 76 | 1014.5 |
| 20260831165521 | 75 | 67 | 2.0 | 5.0 | 0.00 | 0.00 | 0.00 | 76 | 1014.5 |
| 20260831165021 | 76 | 107 | 2.0 | 5.0 | 0.00 | 0.00 | 0.00 | 76 | 1014.5 |
| 20260831164543 | 75 | 109 | 2.0 | 5.0 | 0.00 | 0.00 | 0.00 | 75 | 1014.5 |
| 20260831164018 | 76 | 131 | 0.0 | 3.0 | 0.00 | 0.00 | 0.00 | 77 | 1014.2 |
| 20260831163520 | 75 | 0 | 1.0 | 4.0 | 0.00 | 0.00 | 0.00 | 76 | 1014.4 |
| 20260831163040 | 75 | 0 | 1.0 | 4.0 | 0.00 | 0.00 | 0.00 | 77 | 1014.4 |
| 20260831162522 | 74 | 153 | 1.0 | 5.0 | 0.00 | 0.00 | 0.00 | 77 | 1014.3 |
| 20260831162019 | 75 | 0 | 1.0 | 5.0 | 0.00 | 0.00 | 0.00 | 78 | 1014.3 |
| 20260831161545 | 74 | 0 | 1.0 | 4.0 | 0.00 | 0.00 | 0.00 | 78 | 1014.3 |
| 20260831161016 | 74 | 171 | 1.0 | 4.0 | 0.00 | 0.00 | 0.00 | 78 | 1014.2 |
| 20260831160521 | 74 | 130 | 1.0 | 7.0 | 0.00 | 0.00 | 0.00 | 78 | 1014.3 |
| 20260831160037 | 74 | 127 | 0.0 | 7.0 | 0.00 | 0.00 | 0.00 | 78 | 1014.2 |
| 20260831155518 | 74 | 136 | 0.0 | 4.0 | 0.00 | 0.00 | 0.00 | 78 | 1014.2 |
| 20260831155018 | 73 | 229 | 1.0 | 4.0 | 0.00 | 0.00 | 0.00 | 79 | 1014.2 |
| 20260831154603 | 73 | 157 | 0.0 | 3.0 | 0.00 | 0.00 | 0.00 | 80 | 1014.3 |
| 20260831154020 | 73 | 105 | 0.0 | 5.0 | 0.00 | 0.00 | 0.00 | 81 | 1014.3 |
| 20260831153522 | 72 | 96 | 0.0 | 5.0 | 0.00 | 0.00 | 0.00 | 81 | 1014.1 |
| 20260831153039 | 72 | 163 | 0.0 | 4.0 | 0.00 | 0.00 | 0.00 | 82 | 1014.0 |
| 20260831152518 | 72 | 249 | 1.0 | 4.0 | 0.00 | 0.00 | 0.00 | 82 | 1014.0 |
| 20260831152019 | 71 | 60 | 1.0 | 4.0 | 0.00 | 0.00 | 0.00 | 82 | 1014.0 |
| 20260831151538 | 72 | 166 | 1.0 | 3.0 | 0.00 | 0.00 | 0.00 | 82 | 1013.9 |
| 20260831151021 | 72 | 123 | 0.0 | 5.0 | 0.00 | 0.00 | 0.00 | 83 | 1013.9 |
| 20260831150521 | 71 | 0 | 0.0 | 5.0 | 0.00 | 0.00 | 0.00 | 83 | 1014.0 |
| 20260831150040 | 71 | 163 | 1.0 | 4.0 | 0.00 | 0.00 | 0.00 | 83 | 1014.1 |
| 20260831145521 | 71 | 188 | 0.0 | 4.0 | 0.00 | 0.00 | 0.00 | 83 | 1014.0 |
| 20260831145020 | 71 | 0 | 0.0 | 2.0 | 0.00 | 0.00 | 0.00 | 84 | 1014.0 |
| 20260831144549 | 71 | 98 | 0.0 | 3.0 | 0.00 | 0.00 | 0.00 | 84 | 1014.0 |
| 20260831144018 | 71 | 142 | 0.0 | 3.0 | 0.00 | 0.00 | 0.00 | 84 | 1013.9 |
| 20260831143519 | 70 | 136 | 0.0 | 2.0 | 0.00 | 0.00 | 0.00 | 85 | 1014.0 |
| 20260831143042 | 70 | 119 | 0.0 | 2.0 | 0.00 | 0.00 | 0.00 | 85 | 1013.8 |
| 20260831142518 | 70 | 119 | 0.0 | 2.0 | 0.00 | 0.00 | 0.00 | 85 | 1013.9 |
| 20260831142021 | 70 | 119 | 0.0 | 2.0 | 0.00 | 0.00 | 0.00 | 86 | 1014.0 |
| 20260831141544 | 69 | 0 | 0.0 | 2.0 | 0.00 | 0.00 | 0.00 | 86 | 1013.7 |
| 20260831141019 | 69 | 119 | 1.0 | 2.0 | 0.00 | 0.00 | 0.00 | 86 | 1013.7 |
| 20260831140520 | 69 | 0 | 0.0 | 1.0 | 0.00 | 0.00 | 0.00 | 86 | 1013.6 |
| 20260831140041 | 69 | 0 | 0.0 | 1.0 | 0.00 | 0.00 | 0.00 | 86 | 1013.5 |
| 20260831135518 | 69 | 0 | 0.0 | 2.0 | 0.00 | 0.00 | 0.00 | 86 | 1013.4 |
| 20260831135021 | 69 | 119 | 0.0 | 2.0 | 0.00 | 0.00 | 0.00 | 86 | 1013.3 |
| 20260831134539 | 69 | 0 | 0.0 | 2.0 | 0.00 | 0.00 | 0.00 | 86 | 1013.2 |
| 20260831134019 | 68 | 0 | 0.0 | 2.0 | 0.00 | 0.00 | 0.00 | 86 | 1013.3 |
| 20260831133520 | 68 | 95 | 0.0 | 0.0 | 0.00 | 0.00 | 0.00 | 86 | 1013.3 |
| 20260831133042 | 68 | 0 | 0.0 | 0.0 | 0.00 | 0.00 | 0.00 | 86 | 1013.2 |
| 20260831132520 | 68 | 0 | 0.0 | 0.0 | 0.00 | 0.00 | 0.00 | 85 | 1013.1 |
| 20260831132018 | 69 | 0 | 0.0 | 0.0 | 0.00 | 0.00 | 0.00 | 85 | 1013.1 |
| 20260831131545 | 69 | 0 | 0.0 | 1.0 | 0.00 | 0.00 | 0.00 | 85 | 1012.9 |
| 20260831131021 | 69 | 0 | 0.0 | 1.0 | 0.00 | 0.00 | 0.00 | 85 | 1013.0 |
| 20260831130518 | 69 | 0 | 0.0 | 2.0 | 0.00 | 0.00 | 0.00 | 85 | 1012.9 |
| 20260831130050 | 69 | 0 | 0.0 | 2.0 | 0.00 | 0.00 | 0.00 | 85 | 1013.0 |
| 20260831125522 | 69 | 0 | 0.0 | 0.0 | 0.00 | 0.00 | 0.00 | 85 | 1013.2 |
| 20260831125021 | 69 | 0 | 0.0 | 1.0 | 0.00 | 0.00 | 0.00 | 85 | 1013.0 |
| 20260831124544 | 69 | 0 | 0.0 | 1.0 | 0.00 | 0.00 | 0.00 | 85 | 1013.0 |
| 20260831124021 | 69 | 0 | 0.0 | 1.0 | 0.00 | 0.00 | 0.00 | 85 | 1013.0 |
| 20260831123520 | 69 | 95 | 0.0 | 2.0 | 0.00 | 0.00 | 0.00 | 85 | 1012.9 |
| 20260831123043 | 69 | 0 | 0.0 | 2.0 | 0.00 | 0.00 | 0.00 | 85 | 1012.9 |
| 20260831122524 | 69 | 0 | 0.0 | 2.0 | 0.00 | 0.00 | 0.00 | 85 | 1012.9 |
| 20260831122023 | 69 | 0 | 0.0 | 0.0 | 0.00 | 0.00 | 0.00 | 85 | 1012.9 |
| 20260831121540 | 70 | 0 | 0.0 | 0.0 | 0.00 | 0.00 | 0.00 | 85 | 1013.0 |
| 20260831121023 | 70 | 0 | 0.0 | 0.0 | 0.00 | 0.00 | 0.00 | 85 | 1013.0 |
| 20260831120523 | 69 | 0 | 0.0 | 0.0 | 0.00 | 0.00 | 0.00 | 85 | 1013.0 |
| 20260831120045 | 70 | 0 | 0.0 | 1.0 | 0.00 | 0.00 | 0.00 | 85 | 1012.9 |
| 20260831115521 | 70 | 0 | 0.0 | 2.0 | 0.00 | 0.00 | 0.00 | 85 | 1012.9 |
| 20260831115017 | 69 | 95 | 0.0 | 2.0 | 0.00 | 0.00 | 0.00 | 85 | 1012.9 |
| 20260831114542 | 70 | 0 | 0.0 | 1.0 | 0.00 | 0.00 | 0.00 | 85 | 1012.9 |
| 20260831114020 | 70 | 0 | 0.0 | 1.0 | 0.00 | 0.00 | 0.00 | 86 | 1012.9 |
| 20260831113522 | 70 | 0 | 0.0 | 1.0 | 0.00 | 0.00 | 0.00 | 86 | 1013.0 |
| 20260831113045 | 70 | 0 | 0.0 | 2.0 | 0.00 | 0.00 | 0.00 | 86 | 1013.0 |
| 20260831112521 | 70 | 0 | 0.0 | 2.0 | 0.00 | 0.00 | 0.00 | 86 | 1013.0 |
| 20260831112018 | 70 | 0 | 0.0 | 1.0 | 0.00 | 0.00 | 0.00 | 86 | 1013.0 |
| 20260831111539 | 70 | 0 | 0.0 | 1.0 | 0.00 | 0.00 | 0.00 | 86 | 1012.9 |
| 20260831111020 | 70 | 0 | 0.0 | 1.0 | 0.00 | 0.00 | 0.00 | 86 | 1013.0 |
| 20260831110519 | 70 | 0 | 0.0 | 1.0 | 0.00 | 0.00 | 0.00 | 86 | 1013.0 |
| 20260831110044 | 69 | 150 | 0.0 | 1.0 | 0.00 | 0.00 | 0.00 | 86 | 1013.0 |
| 20260831105526 | 69 | 0 | 0.0 | 0.0 | 0.00 | 0.00 | 0.00 | 86 | 1013.0 |
| 20260831105022 | 70 | 0 | 0.0 | 1.0 | 0.00 | 0.00 | 0.00 | 86 | 1012.9 |
| 20260831104545 | 70 | 0 | 0.0 | 1.0 | 0.00 | 0.00 | 0.00 | 86 | 1012.9 |
| 20260831104021 | 70 | 150 | 0.0 | 1.0 | 0.00 | 0.00 | 0.00 | 86 | 1013.0 |
| 20260831103517 | 70 | 150 | 0.0 | 3.0 | 0.00 | 0.00 | 0.00 | 86 | 1013.0 |
| 20260831103042 | 70 | 0 | 0.0 | 4.0 | 0.00 | 0.00 | 0.00 | 87 | 1013.1 |
| 20260831102517 | 70 | 0 | 1.0 | 4.0 | 0.00 | 0.00 | 0.00 | 87 | 1013.1 |
| 20260831102018 | 70 | 0 | 0.0 | 0.0 | 0.00 | 0.00 | 0.00 | 87 | 1013.0 |
| 20260831101550 | 70 | 0 | 0.0 | 1.0 | 0.00 | 0.00 | 0.00 | 87 | 1013.0 |
| 20260831101019 | 70 | 0 | 0.0 | 1.0 | 0.00 | 0.00 | 0.00 | 87 | 1013.0 |
| 20260831100519 | 70 | 159 | 0.0 | 1.0 | 0.00 | 0.00 | 0.00 | 87 | 1013.0 |
| 20260831100039 | 70 | 0 | 0.0 | 2.0 | 0.00 | 0.00 | 0.00 | 88 | 1013.1 |
| 20260831095519 | 70 | 0 | 0.0 | 2.0 | 0.00 | 0.00 | 0.00 | 88 | 1013.1 |
| 20260831095021 | 70 | 0 | 0.0 | 1.0 | 0.00 | 0.00 | 0.00 | 88 | 1013.2 |
| 20260831094544 | 70 | 159 | 0.0 | 2.0 | 0.00 | 0.00 | 0.00 | 88 | 1013.1 |
| 20260831094018 | 70 | 0 | 0.0 | 3.0 | 0.00 | 0.00 | 0.00 | 88 | 1013.1 |
| 20260831093518 | 70 | 211 | 0.0 | 4.0 | 0.00 | 0.00 | 0.00 | 88 | 1013.1 |
| 20260831093041 | 70 | 159 | 1.0 | 4.0 | 0.00 | 0.00 | 0.00 | 89 | 1013.2 |
| 20260831092520 | 70 | 0 | 0.0 | 2.0 | 0.00 | 0.00 | 0.00 | 89 | 1013.2 |
| 20260831092020 | 70 | 0 | 0.0 | 2.0 | 0.00 | 0.00 | 0.00 | 89 | 1013.1 |
| 20260831091555 | 70 | 0 | 0.0 | 1.0 | 0.00 | 0.00 | 0.00 | 89 | 1013.1 |
| 20260831091028 | 70 | 0 | 0.0 | 0.0 | 0.00 | 0.00 | 0.00 | 90 | 1013.3 |
| 20260831090524 | 70 | 0 | 0.0 | 2.0 | 0.00 | 0.00 | 0.00 | 90 | 1013.1 |
| 20260831090041 | 70 | 0 | 0.0 | 2.0 | 0.00 | 0.00 | 0.00 | 90 | 1013.1 |
| 20260831085521 | 69 | 156 | 0.0 | 2.0 | 0.00 | 0.00 | 0.00 | 90 | 1013.1 |
| 20260831085019 | 69 | 0 | 0.0 | 3.0 | 0.00 | 0.00 | 0.00 | 90 | 1013.0 |
| 20260831084542 | 69 | 0 | 0.0 | 3.0 | 0.00 | 0.00 | 0.00 | 90 | 1013.1 |
| 20260831084020 | 69 | 0 | 0.0 | 0.0 | 0.00 | 0.00 | 0.00 | 90 | 1013.0 |
| 20260831083520 | 69 | 0 | 0.0 | 0.0 | 0.00 | 0.00 | 0.00 | 91 | 1013.0 |
| 20260831083042 | 69 | 0 | 0.0 | 0.0 | 0.00 | 0.00 | 0.00 | 91 | 1013.0 |
| 20260831082519 | 69 | 0 | 0.0 | 0.0 | 0.00 | 0.00 | 0.00 | 90 | 1013.0 |
| 20260831082021 | 69 | 0 | 0.0 | 1.0 | 0.00 | 0.00 | 0.00 | 90 | 1013.0 |
| 20260831081543 | 69 | 0 | 0.0 | 1.0 | 0.00 | 0.00 | 0.00 | 90 | 1013.0 |
| 20260831081021 | 69 | 0 | 0.0 | 1.0 | 0.00 | 0.00 | 0.00 | 90 | 1013.2 |
| 20260831080518 | 69 | 0 | 0.0 | 1.0 | 0.00 | 0.00 | 0.00 | 90 | 1013.2 |
| 20260831080100 | 69 | 0 | 0.0 | 0.0 | 0.00 | 0.00 | 0.00 | 90 | 1013.2 |
| 20260831075520 | 69 | 0 | 0.0 | 0.0 | 0.00 | 0.00 | 0.00 | 90 | 1013.2 |
| 20260831075019 | 69 | 0 | 0.0 | 0.0 | 0.00 | 0.00 | 0.00 | 90 | 1013.1 |
| 20260831074542 | 69 | 0 | 0.0 | 1.0 | 0.00 | 0.00 | 0.00 | 90 | 1013.1 |
| 20260831074024 | 69 | 0 | 0.0 | 1.0 | 0.00 | 0.00 | 0.00 | 90 | 1013.1 |
| 20260831073520 | 69 | 0 | 0.0 | 0.0 | 0.00 | 0.00 | 0.00 | 90 | 1013.2 |
| 20260831073108 | 69 | 0 | 0.0 | 1.0 | 0.00 | 0.00 | 0.00 | 90 | 1013.1 |
| 20260831072518 | 69 | 0 | 0.0 | 1.0 | 0.00 | 0.00 | 0.00 | 90 | 1013.2 |
| 20260831072025 | 70 | 0 | 0.0 | 2.0 | 0.00 | 0.00 | 0.00 | 90 | 1013.3 |
| 20260831071551 | 70 | 0 | 0.0 | 2.0 | 0.00 | 0.00 | 0.00 | 90 | 1013.3 |
| 20260831071025 | 70 | 126 | 0.0 | 2.0 | 0.00 | 0.00 | 0.00 | 91 | 1013.2 |
| 20260831070522 | 69 | 0 | 0.0 | 1.0 | 0.00 | 0.00 | 0.00 | 90 | 1013.2 |